Hourly Data Report for March 04, 2017

OTTAWA INTL A
ONTARIO

45°19'00.000" N
75°40'00.000" W
114.90 m
6106001
71628
YOW

Download Data

Hourly Data (March 2017)
Hourly Data Report for March 4, 2017
TIME
LST
Temp Definition
°C
Dew Point Definition
°C
Rel Hum Definition
%
Precip. Amount Definition
mm

Wind Dir Definition
10's deg

Wind Spd Definition
km/h
Visibility Definition
km
Stn Press Definition
kPa
Hmdx Definition


Wind Chill Definition


Weather Definition


00:00 -16.4 -20.5 71   22 9 24.1 101.73   -22 LegendNANA
01:00 -16.9 -20.5 74   22 10 24.1 101.73   -24 Clear
02:00 -16.6 -20.2 74   28 9 24.1 101.74   -23 LegendNANA
03:00 -16.6 -20.4 73   28 17 24.1 101.75   -25 LegendNANA
04:00 -16.6 -21.0 69   32 26 24.1 101.82   -27 Clear
05:00 -17.2 -22.9 62   31 26 24.1 101.89   -28 LegendNANA
06:00 -18.4 -25.4 55   33 32 24.1 101.98   -31 LegendNANA
07:00 -19.5 -26.2 56   33 33 24.1 102.13   -32 Clear
08:00 -20.0 -28.0 50   34 35 24.1 102.26   -33 LegendNANA
09:00 -20.2 -27.5 53   32 26 24.1 102.38   -32 LegendNANA
10:00 -19.5 -27.3 51   33 22 24.1 102.47   -30 Clear
11:00 -18.5 -27.2 47   34 20 24.1 102.52   -29 LegendNANA
12:00 -17.5 -26.8 45   33 21 24.1 102.53   -28 LegendNANA
13:00 -16.2 -25.6 45   32 19 24.1 102.51   -25 Clear
14:00 -15.3 -25.0 44   30 22 24.1 102.47   -25 LegendNANA
15:00 -14.6 -24.4 44   29 25 24.1 102.48   -25 LegendNANA
16:00 -14.3 -24.3 43   29 26 24.1 102.47   -24 Clear
17:00 -14.5 -23.5 47   27 25 24.1 102.51   -25 LegendNANA
18:00 -14.9 -23.2 50   27 14 24.1 102.52   -22 LegendNANA
19:00 -15.2 -23.0 52   27 15 24.1 102.54   -23 Clear
20:00 -15.2 -22.6 54   28 16 24.1 102.57   -23 LegendNANA
21:00 -15.2 -21.7 58   30 15 24.1 102.62   -23 LegendNANA
22:00 -15.2 -21.7 58   32 19 24.1 102.66   -24 Clear
23:00 -15.7 -22.0 59   33 20 24.1 102.64   -25 LegendNANA

Notes on Data Quality.

Legend

  • E = Estimated
  • M = Missing
  • NA = Not Available*
  • [empty] = Indicates an unobserved value
Date modified: